This is the latest recevied weather packets stored in our database for station/object M0OAB-1. If no packets are shown the sender has not sent any weather packets the latest 10 day(s).
| Time | Temp. | Humidity | Pressure | Rain* | Wind** | Luminosity | Snow |
|---|---|---|---|---|---|---|---|
| 1777896844 | 16.67° C | 70% | 1000.5 hPa | 0 mm | - | - | - |
| 1777896484 | 16.67° C | 70% | 1000.6 hPa | 0 mm | - | - | - |
| 1777894204 | 16.67° C | 72% | 1000.9 hPa | 0 mm | - | - | - |
| 1777893604 | 16.11° C | 71% | 1000.9 hPa | 0 mm | - | - | - |
| 1777893004 | 16.11° C | 71% | 1000.8 hPa | 0 mm | - | - | - |
| 1777892404 | 15.56° C | 71% | 1000.9 hPa | 0 mm | - | - | - |
| 1777892164 | 16.11° C | 71% | 1000.8 hPa | 0 mm | - | - | - |
| 1777891924 | 16.11° C | 70% | 1000.9 hPa | 0 mm | - | - | - |
| 1777891204 | 16.11° C | 71% | 1000.7 hPa | 0 mm | - | - | - |
| 1777890364 | 16.11° C | 72% | 1000.6 hPa | 0 mm | - | - | - |
| 1777890244 | 15.56° C | 72% | 1000.6 hPa | 0 mm | - | - | - |
| 1777886284 | 13.89° C | 75% | 1000.6 hPa | 0 mm | - | - | - |
| 1777885684 | 14.44° C | 75% | 1000.4 hPa | 0 mm | - | - | - |
| 1777884244 | 13.89° C | 79% | 1000.3 hPa | 0 mm | - | - | - |
| 1777883404 | 12.78° C | 80% | 1000.1 hPa | 0 mm | - | - | - |
| 1777882323 | 12.78° C | 80% | 999.9 hPa | 0 mm | - | - | - |
| 1777881844 | 12.78° C | 81% | 1000.1 hPa | 0 mm | - | - | - |
| 1777880884 | 12.22° C | 81% | 1000 hPa | 0 mm | - | - | - |
| 1777880764 | 12.22° C | 81% | 999.9 hPa | 0 mm | - | - | - |
| 1777880643 | 12.22° C | 84% | 1000 hPa | 0 mm | - | - | - |
| 1777879924 | 12.22° C | 85% | 999.7 hPa | 0 mm | - | - | - |
| 1777879204 | 12.22° C | 86% | 999.8 hPa | 0 mm | - | - | - |
| 1777878724 | 12.22° C | 86% | 999.7 hPa | 0 mm | - | - | - |
| 1777878244 | 12.22° C | 87% | 999.5 hPa | 0 mm | - | - | - |
| 1777878003 | 12.22° C | 88% | 999.6 hPa | 0 mm | - | - | - |
* Rain latest hour (hover to see other rain measurements)
** Current wind speed in m/s (hover to see current wind gust speed)